Showing default

CONNECTA IOT-3, 60475

Orbit data source: Space-Track

CONNECTA IOT-3, 60475 is a payload satellite owned by Plan-S (TR) in SSO that was launched on Fri, 16 Aug 2024 UTC via an FALCON 9 launch vehicle from the Air Force Western Test Range (AFWTR). Payload-class satellites include a variety of spacecraft equipped with specific instruments for various scientific and technological missions. These include communications satellites like Starlink; space stations such as the ISS; scientific satellites like the Hubble; Earth observation satellites from companies like Planet Labs, Umbra, and HawkEye 360; GPS; miniature CubeSats for education and research; and military/defense satellites.

Loading next visibility...
Identifier
60475, 2024-149H
Orbit
SSO
Country
Flag of TRTR / TURK
Related business
Manufacturer
Plan-S
Mission
Operational Commercial Communications
Bus & Motor
CUBESAT 6U, Unknown motor
Mass
10 kg wet, 10 kg dry
Launch date (UTC)
2024-08-16 (2 years ago)
Launch vehicle
FALCON 9
Launch site
Air Force Western Test Range (AFWTR)
Object type
Payload
Rocket body
Debris
Shape & HBR
Box, 2.2 m
Radar Cross Section
0.080 m², Medium (>0.1 m² and < 1m²)

Expand to show TLE details & history
Last TLE update: 1 day ago

TLE from 1 day ago
0 CONNECTA IOT-3
1 60475U 24149H   26252.95713931  .00003349  00000-0  14072-3 0  9993
2 60475  97.3677 327.5474 0002371   3.5186 356.6068 15.24116499114711
Epoch: 2026-09-09T22:58Z
TLE epoch observation values (Epoch: 2026-09-09T22:58:16.836Z)
Latitude
0.00001°
Longitude
-6.0245°
Altitude
494.91 km
Speed
7.618 km/s
True Right ascension
21h 50m 11s
True Declination
0° 00' 00"
Sunlit
Object was in full shadow at epoch
Visualization orbit readout
Latitude
Unknown
Longitude
Unknown
Altitude
Unknown
Speed
Unknown
Apparent Right ascension
Unknown
Apparent Declination
Unknown
Sunlit
N/A
Visualization observer readout
Local Sidereal Time
15:13:47
Azimuth
Unknown
Elevation
Unknown
Doppler factor
Unknown
Orbital elements
Apogee altitude
492.027 km
Perigee altitude
488.77 km
Semi-major axis
6,868.535 km
Eccentricity
0.00024
Inclination
97.3677°
RAAN
327.5474°
Arg. of periapsis
3.5186°
True anomaly
356.60519°
Mean anomaly
356.6068°
Eccentric anomaly
356.606°
Mean motion
3.81283 °/min
Orbital period
94.42 mins
BSTAR
0.00014072
Loading maneuver chart data...
Computing Atmospheric mass density...
Loading historical data...
Loading historical data...
Loading historical data...
Loading historical data...
Loading historical data...
Loading historical data...
Loading historical data...

Documentation

Showing up to 5 results
|